Simultaneous Nadir Overpasses (SNOs) Predictions

Prediction of SNOs between GOES-15 and TERRA Satellite Orbit:

Table of predicted SNOs for the next 14.0 days since TLE Epoch: 9/24/2022
Index Date Time (GOES-15) GOES-15 Lat,Lon TERRA Lat,Lon Distance(km) Time Diff (sec)
1 09/24/2022 06:36:36 0.29,-127.93 0.76,-125.79 244.36 80
2 09/24/2022 18:57:50 -0.31,-127.96 0.29,-130.95 339.08 80
3 09/26/2022 18:48:13 -0.31,-128.02 -0.31,-127.99 3.93 80
4 09/28/2022 18:35:57 -0.30,-128.07 -0.93,-125.02 346.43 80
5 09/29/2022 06:57:19 0.31,-128.08 -0.15,-130.22 243.87 80
6 10/01/2022 06:42:22 0.31,-128.12 0.48,-127.26 97.35 80
7 10/01/2022 19:03:37 -0.31,-128.13 0.57,-132.43 488.10 80
8 10/03/2022 06:30:05 0.30,-128.15 1.12,-124.30 437.77 80
9 10/03/2022 18:51:19 -0.31,-128.16 -0.01,-129.45 147.60 80
10 10/05/2022 18:41:42 -0.30,-128.19 -0.66,-126.49 192.58 80
11 10/06/2022 07:03:05 0.31,-128.20 -0.41,-131.69 396.52 80
